| time (UTC) | temp F | wind direction | speed knots | gust knots | rain 1hr in | rain 24hr in | rain mn in | humidity % | barometer mb |
| 20260508030110 | 42 | 0 | 0.0 | 0.0 | 0.00 | 0.03 | 0.00 | 65 | 1019.0 |
| 20260508024555 | 42 | 0 | 0.0 | 0.0 | 0.00 | 0.09 | 0.00 | 65 | 1018.8 |
| 20260508023053 | 43 | 0 | 0.0 | 0.0 | 0.00 | 0.09 | 0.00 | 65 | 1018.8 |
| 20260508021616 | 43 | 0 | 0.0 | 0.0 | 0.00 | 0.09 | 0.00 | 65 | 1018.9 |
| 20260508020057 | 43 | 0 | 0.0 | 0.0 | 0.00 | 0.09 | 0.00 | 65 | 1018.8 |
| 20260508014554 | 43 | 0 | 0.0 | 0.0 | 0.00 | 0.18 | 0.00 | 65 | 1018.8 |
| 20260508013056 | 43 | 0 | 0.0 | 0.0 | 0.00 | 0.18 | 0.00 | 65 | 1018.7 |
| 20260508011558 | 43 | 207 | 0.0 | 1.7 | 0.00 | 0.18 | 0.00 | 65 | 1018.8 |
| 20260508010056 | 43 | 207 | 0.0 | 0.9 | 0.00 | 0.18 | 0.00 | 65 | 1018.7 |
| 20260508004601 | 43 | 0 | 0.0 | 0.9 | 0.00 | 0.23 | 0.00 | 66 | 1018.8 |
| 20260508003107 | 42 | 207 | 0.0 | 0.0 | 0.00 | 0.23 | 0.00 | 66 | 1018.7 |
| 20260508001555 | 42 | 0 | 0.0 | 0.0 | 0.00 | 0.23 | 0.00 | 67 | 1018.9 |
| 20260508000051 | 42 | 0 | 0.0 | 0.9 | 0.00 | 0.23 | 0.00 | 67 | 1019.0 |
| 20260507234551 | 42 | 207 | 0.0 | 1.7 | 0.00 | 0.28 | 0.00 | 67 | 1019.1 |
| 20260507233057 | 43 | 207 | 0.9 | 1.7 | 0.00 | 0.28 | 0.00 | 67 | 1018.9 |
| 20260507231600 | 43 | 207 | 0.0 | 1.7 | 0.00 | 0.28 | 0.00 | 68 | 1018.9 |
| 20260507230056 | 43 | 207 | 0.9 | 1.7 | 0.00 | 0.28 | 0.00 | 68 | 1018.8 |
| 20260507224601 | 44 | 0 | 0.0 | 0.0 | 0.00 | 0.37 | 0.00 | 68 | 1018.8 |
| 20260507223052 | 44 | 0 | 0.0 | 0.0 | 0.00 | 0.37 | 0.00 | 68 | 1018.7 |
| 20260507221551 | 44 | 0 | 0.0 | 0.0 | 0.00 | 0.37 | 0.00 | 68 | 1018.8 |
| 20260507220054 | 45 | 0 | 0.0 | 0.0 | 0.00 | 0.36 | 0.00 | 68 | 1018.8 |
| 20260507214558 | 45 | 0 | 0.0 | 0.0 | 0.00 | 0.43 | 0.36 | 68 | 1018.7 |
| 20260507213054 | 45 | 0 | 0.0 | 0.0 | 0.00 | 0.43 | 0.36 | 68 | 1018.7 |
| 20260507211555 | 46 | 0 | 0.0 | 0.0 | 0.00 | 0.43 | 0.36 | 68 | 1018.7 |
| 20260507210119 | 46 | 0 | 0.0 | 0.0 | 0.00 | 0.43 | 0.36 | 68 | 1018.5 |
| 20260507204602 | 46 | 0 | 0.0 | 0.0 | 0.00 | 0.81 | 0.36 | 68 | 1018.4 |
| 20260507203104 | 46 | 0 | 0.0 | 0.0 | 0.00 | 0.81 | 0.36 | 68 | 1018.4 |
| 20260507201552 | 46 | 0 | 0.0 | 0.0 | 0.00 | 0.81 | 0.36 | 68 | 1018.4 |
| 20260507200105 | 46 | 0 | 0.0 | 0.0 | 0.00 | 0.81 | 0.36 | 68 | 1018.3 |
| 20260507194555 | 46 | 0 | 0.0 | 0.0 | 0.00 | 1.13 | 0.36 | 69 | 1018.1 |
| 20260507193118 | 46 | 0 | 0.0 | 0.0 | 0.00 | 1.13 | 0.36 | 69 | 1018.1 |
| 20260507191603 | 47 | 0 | 0.0 | 0.0 | 0.00 | 1.13 | 0.36 | 69 | 1018.0 |
| 20260507190100 | 47 | 0 | 0.0 | 0.0 | 0.00 | 1.13 | 0.36 | 69 | 1018.0 |
| 20260507184603 | 47 | 0 | 0.0 | 0.0 | 0.00 | 1.16 | 0.36 | 69 | 1017.8 |
| 20260507183107 | 47 | 0 | 0.0 | 0.0 | 0.00 | 1.16 | 0.36 | 69 | 1017.7 |
| 20260507181556 | 47 | 0 | 0.0 | 0.0 | 0.00 | 1.16 | 0.36 | 69 | 1017.7 |
| 20260507180056 | 47 | 0 | 0.0 | 0.0 | 0.00 | 1.16 | 0.36 | 69 | 1017.6 |
| 20260507174557 | 47 | 0 | 0.0 | 0.0 | 0.00 | 1.20 | 0.36 | 69 | 1017.5 |
| 20260507173132 | 47 | 0 | 0.0 | 0.0 | 0.00 | 1.20 | 0.36 | 69 | 1017.5 |
| 20260507171553 | 47 | 0 | 0.0 | 0.0 | 0.00 | 1.20 | 0.36 | 69 | 1017.3 |
| 20260507170055 | 47 | 0 | 0.0 | 0.0 | 0.00 | 1.20 | 0.36 | 68 | 1017.4 |
| 20260507164600 | 47 | 0 | 0.0 | 1.7 | 0.00 | 1.20 | 0.36 | 68 | 1017.2 |
| 20260507163053 | 47 | 0 | 0.0 | 1.7 | 0.00 | 1.20 | 0.36 | 68 | 1017.2 |
| 20260507161608 | 47 | 0 | 0.0 | 0.0 | 0.00 | 1.20 | 0.36 | 68 | 1017.1 |
| 20260507160104 | 47 | 207 | 0.0 | 0.0 | 0.00 | 1.20 | 0.36 | 68 | 1017.0 |
| 20260507154555 | 47 | 0 | 0.0 | 2.6 | 0.00 | 1.25 | 0.36 | 68 | 1017.1 |
| 20260507153053 | 47 | 0 | 0.0 | 0.0 | 0.00 | 1.25 | 0.36 | 68 | 1016.8 |
| 20260507151553 | 47 | 0 | 0.0 | 0.0 | 0.00 | 1.25 | 0.36 | 68 | 1016.8 |
| 20260507150054 | 46 | 0 | 0.0 | 1.7 | 0.00 | 1.25 | 0.36 | 68 | 1016.8 |
| 20260507144601 | 46 | 0 | 0.9 | 4.3 | 0.00 | 1.37 | 0.36 | 68 | 1016.8 |
| 20260507143059 | 47 | 182 | 0.9 | 5.2 | 0.00 | 1.37 | 0.36 | 68 | 1016.6 |
| 20260507141610 | 47 | 179 | 1.7 | 5.2 | 0.00 | 1.37 | 0.36 | 67 | 1016.6 |
| 20260507140109 | 47 | 177 | 0.9 | 4.3 | 0.00 | 1.37 | 0.36 | 67 | 1016.6 |
| 20260507134603 | 46 | 207 | 0.0 | 8.7 | 0.00 | 1.47 | 0.36 | 68 | 1016.6 |
| 20260507133056 | 47 | 205 | 1.7 | 7.0 | 0.00 | 1.47 | 0.36 | 68 | 1016.4 |
| 20260507131552 | 47 | 202 | 1.7 | 4.3 | 0.00 | 1.47 | 0.36 | 68 | 1016.3 |
| 20260507130056 | 47 | 212 | 2.6 | 6.1 | 0.00 | 1.47 | 0.36 | 67 | 1016.2 |
| 20260507124555 | 47 | 213 | 0.9 | 4.3 | 0.00 | 1.47 | 0.36 | 65 | 1016.1 |
| 20260507123055 | 47 | 212 | 0.9 | 3.5 | 0.00 | 1.47 | 0.36 | 62 | 1016.0 |
| 20260507121558 | 47 | 208 | 1.7 | 7.0 | 0.00 | 1.47 | 0.36 | 62 | 1015.7 |
| 20260507120054 | 46 | 205 | 1.7 | 8.7 | 0.00 | 1.47 | 0.36 | 62 | 1015.8 |
| 20260507114559 | 47 | 216 | 3.5 | 9.6 | 0.00 | 1.51 | 0.36 | 61 | 1015.7 |
| 20260507113058 | 46 | 215 | 2.6 | 6.1 | 0.00 | 1.51 | 0.36 | 61 | 1015.6 |
| 20260507111602 | 46 | 215 | 2.6 | 6.1 | 0.00 | 1.51 | 0.36 | 61 | 1015.5 |
| 20260507110059 | 46 | 232 | 2.6 | 5.2 | 0.00 | 1.51 | 0.36 | 61 | 1015.6 |
| 20260507104555 | 45 | 235 | 0.9 | 4.3 | 0.00 | 1.53 | 0.36 | 61 | 1015.4 |
| 20260507103054 | 45 | 236 | 0.0 | 5.2 | 0.00 | 1.53 | 0.36 | 62 | 1015.4 |
| 20260507101625 | 45 | 230 | 1.7 | 5.2 | 0.00 | 1.53 | 0.36 | 62 | 1015.1 |
| 20260507100052 | 45 | 212 | 1.7 | 7.0 | 0.00 | 1.53 | 0.36 | 62 | 1015.0 |
| 20260507094555 | 45 | 225 | 2.6 | 6.1 | 0.00 | 1.55 | 0.36 | 62 | 1014.7 |
| 20260507093057 | 45 | 244 | 2.6 | 7.8 | 0.00 | 1.55 | 0.36 | 62 | 1014.6 |
| 20260507091557 | 45 | 256 | 1.7 | 6.1 | 0.00 | 1.55 | 0.36 | 62 | 1014.4 |
| 20260507090111 | 45 | 230 | 2.6 | 7.0 | 0.00 | 1.55 | 0.36 | 62 | 1014.2 |
| 20260507084555 | 45 | 246 | 1.7 | 7.0 | 0.00 | 1.56 | 0.36 | 62 | 1014.1 |
| 20260507083056 | 45 | 225 | 4.3 | 7.8 | 0.00 | 1.56 | 0.36 | 62 | 1013.9 |
| 20260507081552 | 45 | 202 | 2.6 | 7.8 | 0.00 | 1.56 | 0.36 | 62 | 1013.8 |
| 20260507080055 | 45 | 192 | 2.6 | 7.8 | 0.00 | 1.56 | 0.36 | 62 | 1013.7 |
| 20260507074557 | 45 | 237 | 1.7 | 7.8 | 0.00 | 1.61 | 0.36 | 62 | 1013.5 |
| 20260507073052 | 45 | 240 | 0.9 | 7.8 | 0.00 | 1.61 | 0.36 | 62 | 1013.4 |
| 20260507071556 | 45 | 217 | 1.7 | 7.8 | 0.00 | 1.61 | 0.36 | 62 | 1013.1 |
| 20260507070056 | 45 | 221 | 2.6 | 7.0 | 0.00 | 1.61 | 0.36 | 62 | 1013.0 |
| 20260507064607 | 45 | 223 | 1.7 | 5.2 | 0.00 | 1.71 | 0.36 | 62 | 1013.0 |
| 20260507063055 | 45 | 225 | 1.7 | 4.3 | 0.00 | 1.71 | 0.36 | 62 | 1012.7 |
| 20260507061553 | 45 | 204 | 1.7 | 7.0 | 0.00 | 1.71 | 0.36 | 62 | 1012.5 |
| 20260507060058 | 45 | 230 | 0.9 | 7.0 | 0.00 | 1.71 | 0.36 | 62 | 1012.3 |
| 20260507054606 | 45 | 221 | 1.7 | 8.7 | 0.00 | 1.88 | 0.36 | 62 | 1012.1 |
| 20260507053055 | 45 | 234 | 1.7 | 7.8 | 0.00 | 1.88 | 0.36 | 62 | 1012.0 |
| 20260507051555 | 45 | 232 | 0.9 | 8.7 | 0.00 | 1.87 | 0.35 | 62 | 1011.8 |
| 20260507050056 | 45 | 231 | 1.7 | 7.8 | 0.00 | 1.87 | 0.35 | 62 | 1011.5 |
| 20260507044554 | 45 | 228 | 3.5 | 8.7 | 0.00 | 2.18 | 0.35 | 62 | 1011.4 |
| 20260507043059 | 45 | 239 | 4.3 | 9.6 | 0.00 | 2.18 | 0.35 | 62 | 1011.2 |
| 20260507041603 | 45 | 252 | 1.7 | 7.8 | 0.00 | 2.18 | 0.35 | 62 | 1011.0 |
| 20260507040058 | 45 | 250 | 2.6 | 7.8 | 0.01 | 2.18 | 0.35 | 62 | 1011.0 |
| 20260507034556 | 45 | 246 | 1.7 | 7.8 | 0.03 | 2.46 | 0.35 | 61 | 1011.0 |
| 20260507033054 | 46 | 232 | 1.7 | 10.4 | 0.03 | 2.45 | 0.34 | 62 | 1010.9 |
| 20260507031558 | 46 | 246 | 2.6 | 10.4 | 0.03 | 2.45 | 0.34 | 61 | 1010.9 |